Regional Weather Roundup
Issued by NWS

Home | Current Version | Previous Version | Text Only | Print | Product List | Glossary On
Versions: 1 2 3 4 5 6 7 8 9 10 11 12 13 14 15 16 17 18 19 20 21 22 23 24 25 26 27 28 29 30 31 32 33 34 35 36 37 38 39 40 41 42 43 44 45 46 47 48 49 50
000
ASUS43 KLSX 270407
RWRMO

WEATHER SUMMARY FOR MISSOURI
NATIONAL WEATHER SERVICE SPRINGFIELD MO
1100 PM CDT THU MAR 26 2015

NOTE: "FAIR" INDICATES FEW OR NO CLOUDS BELOW 12,000 FEET WITH NO
       SIGNIFICANT WEATHER AND/OR OBSTRUCTIONS TO VISIBILITY.
       CURRENT SKY AND/OR WEATHER CONDITIONS ARE NOT AVAILABLE FOR
       CHILLICOTHE AND FARMINGTON.

MOZ001>031-035>038-043-044-053-054-270500-
...NORTHERN AND WESTERN MISSOURI...

CITY           SKY/WX    TMP DP  RH WIND       PRES   REMARKS
KANSAS CTY INT LGT RAIN  40  33  76 N17       30.14R
KANSAS C DTWN  CLOUDY    45  31  58 N14G24    30.13R
LEE`S SUMMIT   CLOUDY    46  28  49 N16       30.12R
ST JOSEPH      CLOUDY    37  33  85 NE17      30.18R WCI  27
CHILLICOTHE      N/A     39  30  70 N13G22    30.16R
KIRKSVILLE     CLOUDY    40  27  59 N13       30.12R

$$
MOZ066>068-077>081-088>096-101>105-270500-
...SOUTHWEST MISSOURI...

CITY           SKY/WX    TMP DP  RH WIND       PRES   REMARKS
SPRINGFIELD    CLOUDY    42  30  62 NW3       30.06R
JOPLIN         MOCLDY    45  30  55 CALM      30.08S

$$
MOZ032>034-039>042-045>050-055>058-069>072-270500-
...CENTRAL MISSOURI...

CITY           SKY/WX    TMP DP  RH WIND       PRES   REMARKS
COLUMBIA       CLOUDY    42  30  62 NW6       30.08S
JEFFERSON CITY CLOUDY    41  31  67 CALM      30.09S
ROLLA          MOCLDY    40  28  62 MISG      30.06S
SEDALIA        CLOUDY    45  30  55 CALM      30.09F
WHITEMAN AFB   MOCLDY    43  30  59 CALM      30.08S
WARRENSBURG    CLOUDY    43  30  61 N3        30.09F
OSAGE BEACH    CLOUDY    43  28  56 NE3       30.08R

$$
MOZ051-052-059>065-270500-
...EAST CENTRAL MISSOURI...

CITY           SKY/WX    TMP DP  RH WIND       PRES   REMARKS
ST LOUIS INTL  PTCLDY    41  27  57 W6        30.07S
SPIRIT OF STL  PTCLDY    34  29  82 W5        30.07S WCI  30
ST CHARLES     PTCLDY    39  30  70 W6        30.06F

$$
MOZ072>076-082>087-097>100-106>115-270500-
...SOUTH CENTRAL AND SOUTHEAST MISSOURI...

CITY           SKY/WX    TMP DP  RH WIND       PRES   REMARKS
CAPE GIRARDEAU CLEAR     36  34  92 SW5       30.06S
FARMINGTON     CLEAR     36  27  69 N5        30.07F
POPLAR BLUFF   CLEAR     40  35  83 CALM      30.06R
WEST PLAINS    CLEAR     38  27  64 MISG      30.06F

$$


USA.gov is the U.S. government's official web portal to all federal, state and local government web resources and services.